Flag for Macedonia, Republic of Weather past 2 weeks in Kumanovo, Macedonia, Republic of

Now
75 °F

Clear.


Feels Like: 78 °F
Forecast: 61 / 80 °F
Wind: 2 mph from North

Location: Skopje-Petrovec

Current Time: Aug 28, 2014 at 12:04:45 AM

Latest Report: Aug 27, 2014 at 11:30 PM


Visibility: 10 mi

Pressure: 29.83 "Hg

Humidity: 50%

Dew point: 55 °F

Location of KumanovoLocation

Historic Weather in Kumanovo — Graph

°F

Kumanovo temperature yesterday

Maximum temperature yesterday: 95 °F (at 3:00 PM)
Minimum temperature yesterday: 59 °F (at 6:30 AM)
Average temperature yesterday: 76 °F

Past Weeks' High & Low Weather Summary

 TemperatureHumidityPressure
High97 °F (Aug 13, 3:00 PM)94% (Aug 13, 5:30 AM)30.09 "Hg (Aug 13, 5:30 AM)
Low52 °F (Aug 19, 5:00 AM)17% (Aug 18, 5:00 PM)29.77 "Hg (Aug 14, 4:30 PM)
Average76 °F55%29.94 "Hg
* Reported Aug 12 10:00 PM — Aug 27 10:00 PM, Kumanovo, Weather by CustomWeather, © 2014

Note: Actual official high and low records may vary slightly from our data, if they occured in-between our weather recording intervals... More about our weather records

Advertising

Kumanovo weather history for previous 24 hours

 ConditionsComfort  
Time TempWeatherWind HumidityBarometerVisibility
10:00 PM
Aug 27
73 °FClear.No wind65%29.80 "Hg10 mi
9:30 PM75 °FClear.5 mph57%29.80 "Hg10 mi
9:00 PM77 °FClear.2 mph57%29.80 "Hg10 mi
8:00 PM81 °FSunny.2 mph51%29.80 "Hg10 mi
7:30 PM84 °FScattered clouds.3 mph48%29.77 "HgN/A
7:00 PM88 °FScattered clouds.3 mph35%29.77 "HgN/A
6:30 PM91 °FScattered clouds.No wind30%29.77 "HgN/A
6:00 PM95 °FSunny.No wind25%29.77 "Hg10 mi
5:00 PM93 °FSunny.No wind28%29.77 "Hg10 mi
4:30 PM93 °FSunny.No wind26%29.77 "Hg10 mi
4:00 PM95 °FSunny.No wind25%29.77 "Hg10 mi
3:30 PM95 °FSunny.No wind25%29.80 "Hg10 mi
3:00 PM95 °FSunny.No wind25%29.80 "Hg10 mi
2:00 PM91 °FPassing clouds.5 mph28%29.83 "HgN/A
1:30 PM90 °FPassing clouds.6 mph27%29.83 "HgN/A
1:00 PM88 °FPassing clouds.7 mph31%29.86 "HgN/A
12:30 PM90 °FSunny.No wind31%29.86 "Hg10 mi
12:00 PM86 °FSunny.No wind40%29.86 "Hg10 mi
11:30 AM82 °FSunny.No wind48%29.89 "Hg10 mi
11:00 AM82 °FSunny.No wind48%29.89 "Hg10 mi
10:00 AM77 °FSunny.No wind51%29.92 "Hg10 mi
9:30 AM73 °FSunny.No wind57%29.92 "Hg10 mi
9:00 AM72 °FSunny.No wind61%29.92 "Hg10 mi
8:30 AM70 °FSunny.No wind64%29.92 "Hg10 mi
8:00 AM68 °FSunny.No wind69%29.95 "Hg10 mi
7:30 AM66 °FSunny.No wind78%29.95 "Hg10 mi
7:00 AM63 °FSunny.No wind88%29.95 "Hg10 mi
6:30 AM59 °FClear.1 mph94%29.95 "Hg10 mi
6:00 AM61 °FClear.No wind88%29.95 "Hg10 mi
5:30 AM61 °FClear.1 mph88%29.95 "Hg10 mi
5:00 AM61 °FClear.1 mph88%29.95 "Hg10 mi
4:30 AM61 °FClear.2 mph88%29.92 "Hg10 mi
4:00 AM63 °FClear.2 mph88%29.92 "Hg10 mi
3:30 AM63 °FClear.No wind83%29.92 "Hg10 mi
3:00 AM63 °FClear.1 mph88%29.92 "Hg10 mi
2:30 AM64 °FClear.1 mph83%29.92 "Hg10 mi
2:00 AM66 °FClear.2 mph83%29.92 "Hg10 mi
1:30 AM64 °FClear.No wind88%29.92 "Hg10 mi
1:00 AM66 °FClear.1 mph78%29.92 "Hg10 mi
12:30 AM68 °FClear.No wind78%29.92 "Hg10 mi
12:00 AM68 °FClear.No wind78%29.92 "Hg10 mi
Weather by CustomWeather, © 2014

See weather overviewHow to use our weather pages